Location: Township of Marena
(38.1747°N, 99.6798°W)
Time: 12:21:43
(UTC+00:00)

CZ-4B R/B - Pass Details

Date: 26 October 2020
Orbit: 495 x 647 km, 97.8° (Epoch: 24 November)

Event Time Altitude Azimuth Distance (km) Brightness Sun altitude
Rises 11:12:20 0° 16° (NNE) 2,866 7.7 -21.6°
Reaches altitude 10° 11:14:35 10° 20° (NNE) 1,934 6.8 -21.1°
Maximum altitude 11:18:44 60° 100° (E) 658 4.4 -20.3°
Drops below altitude 10° 11:22:39 10° 181° (S) 1,828 6.5 -19.5°
Sets 11:24:44 0° 185° (S) 2,693 7.3 -19.1°
